Location: Tucson
(32.2217°N, 110.9265°W)
Time: 16:01:36
(UTC-07:00)

SRMSAT - Visible Passes

Search period start: 06 December 2021 00:00
Search period end: 16 December 2021 00:00
Orbit: 848 x 865 km, 20.0° (Epoch: 06 December)

Date Brightness Start Highest point End Pass type
(mag) Time Alt. Az. Time Alt. Az. Time Alt. Az.
08 Dec ? 20:09:09 10° SSW 20:10:09 13° SSW 20:10:09 13° SSW visible
09 Dec ? 19:55:44 10° SSW 19:57:58 16° S 19:57:58 16° S visible
10 Dec ? 19:42:23 10° SSW 19:45:47 18° S 19:45:47 18° S visible
11 Dec ? 19:29:04 10° SSW 19:33:09 19° S 19:33:37 19° SSE visible
12 Dec ? 19:15:46 10° SW 19:20:02 20° S 19:21:26 19° SSE visible
13 Dec ? 19:02:31 10° SW 19:06:54 21° S 19:09:16 17° SE visible
13 Dec ? 20:50:50 10° SW 20:51:15 12° SW 20:51:15 12° SW visible
14 Dec ? 18:49:17 10° SW 18:53:46 22° S 18:57:06 14° SE visible
14 Dec ? 20:37:44 10° SW 20:39:06 15° SW 20:39:06 15° SW visible
15 Dec ? 18:36:05 10° SW 18:40:39 23° S 18:44:58 11° SE visible
15 Dec ? 20:24:40 10° SW 20:26:58 19° SW 20:26:58 19° SW visible
